Zurück zum Katalog

STARLINK-3506

AktivKommunikationVLEO
NORAD 51751·PAYLOAD·🇺🇸 United States

Gestartet Feb 21, 2022 von Cape Canaveral Space Force Station

Loading…

Nächste Überflüge (nächste 24 Stunden)

TLE

AktuellSource: CelesTrak SupGP

Epoche: Sep 15, 2026, 02:14 UTC

1 51751C 22016AP  26258.09354167  .00016280  00000+0  48159-3 0  2582
2 51751  53.1581 164.6501 0001195  83.0068  50.9174 15.34344098    16

Verfolge STARLINK-3506 in Echtzeit mit AllMySat

Download on the App Store